#timestamp,LO_Frequency,Hit,StdDev 
1530003615.8,286046999.3,P
1530003635.7,286046998.8,N
1530003655.5,286047000.7,N
1530003675.3,286046998.8,N
1530003695.2,286046998.6,N
1530003715.0,286046998.2,N
1530003715.9,286046998.2,N
1530003735.8,286047000.3,N
1530003755.6,286047000.3,N
1530003775.4,286046999.9,N
1530003795.3,286046999.9,N
1530003815.1,286047002.3,N
1530003835.8,286047000.5,N
1530003855.7,286046998.5,N
1530003875.5,286046998.2,N
1530003895.4,286046998.2,N
1530003915.2,286046999.0,N
1530003935.0,286046998.4,N
1530003935.9,286046998.4,N
1530003955.8,286046998.6,N
1530003975.6,286046998.8,N
1530003995.5,286046999.2,N
1530004015.3,286046998.9,N
1530004035.1,286046998.9,N
1530004055.9,286046996.7,Y
1530004075.7,286047001.1,P
1530004095.6,286046998.7,N
1530004115.4,286047000.7,N
1530004135.2,286047000.6,N
1530004155.1,286046998.1,N
1530004156.0,286046998.1,N
1530004175.8,286046999.5,N
1530004195.6,286046997.0,N
1530004215.5,286046997.8,N
1530004235.3,286046997.9,N
1530004255.2,286046995.7,Y
1530004275.9,286046995.8,P
1530004295.7,286046995.4,N
1530004315.1,286046995.3,N
1530004335.9,286046996.0,N
1530004355.7,286046995.8,Y
1530004375.5,286047000.4,P
1530004395.4,286046999.7,N
1530004415.2,286046999.8,N
1530004435.0,286047000.6,N
1530004435.9,286047000.6,N
1530004455.8,286047000.1,N
1530004475.6,286047000.2,N
1530004495.5,286047002.3,N
1530004515.3,286047002.4,N
1530004535.1,286047002.1,N
1530004555.9,286047001.7,N
1530004575.7,286047002.4,N
1530004595.6,286047000.1,N
1530004615.4,286046999.9,N
1530004635.2,286047000.5,N
1530004655.1,286047000.6,N
1530004656.0,286047000.6,N
1530004675.8,286046998.4,N
1530004695.6,286046999.3,N
1530004715.5,286046998.3,N
1530004735.3,286046998.6,N
1530004755.1,286046998.2,N
1530004775.9,286046998.1,N
1530004795.7,286046998.4,N
1530004815.6,286046999.3,N
1530004835.4,286046998.8,N
1530004855.2,286046998.6,N
1530004875.1,286046999.2,N
1530004876.0,286046999.2,N
1530004895.8,286046999.5,N
1530004915.7,286046996.6,N
1530004935.5,286046996.8,N
1530004955.3,286046999.1,N
1530004975.2,286046996.6,N
1530004995.0,286046996.6,N
1530004995.9,286046996.6,N
1530005015.8,286046996.9,N
1530005035.6,286046999.2,N
1530005055.4,286046999.5,N
1530005075.3,286046999.0,N
1530005095.1,286046999.0,N
1530005115.8,286046997.3,N
1530005135.7,286046998.0,N
1530005155.5,286046997.3,N
1530005175.4,286046998.0,N
1530005195.2,286046995.7,Y
1530005215.0,286046996.7,P
1530005215.9,286046996.7,P
1530005235.8,286046998.8,N
1530005255.6,286046999.0,N
1530005275.4,286046998.3,N
1530005295.3,286046998.8,N
1530005315.1,286046998.4,N
1530005335.9,286046998.4,N
1530005355.7,286046998.5,N
1530005375.5,286046998.9,N
1530005395.4,286046997.1,Y
1530005415.2,286046998.1,P
1530005435.1,286046998.5,P
1530005436.0,286046998.5,P
1530005455.8,286046998.7,Y
1530005475.6,286047002.3,P
1530005495.5,286047002.6,N
1530005515.3,286047001.8,N
1530005535.1,286047001.4,N
1530005555.9,286047004.1,N
1530005575.8,286047001.8,N
1530005595.6,286047002.1,N
1530005615.4,286047000.3,N
1530005635.3,286047002.5,N
1530005655.1,286047004.0,N
1530005675.8,286047002.5,N
1530005695.7,286047002.0,N
1530005715.5,286047000.3,N
1530005735.4,286047002.8,N
1530005755.2,286047001.0,N
1530005775.0,286047000.1,N
1530005775.9,286047000.1,N
1530005795.8,286047000.1,N
1530005815.6,286047000.6,N
1530005835.5,286047000.0,N
1530005855.3,286047002.4,N
1530005875.1,286047002.4,N
1530005895.9,286047002.4,N
1530005915.7,286047002.5,N
1530005935.6,286047002.2,N
1530005955.4,286047002.1,N
1530005975.2,286047001.8,N
1530005995.1,286047001.5,N
1530005996.0,286047001.5,N
1530006015.8,286047002.1,N
1530006035.6,286047002.8,N
1530006055.5,286047002.7,N
1530006075.3,286047002.8,N
1530006095.2,286047000.5,N
1530006115.5,286047000.9,N
1530006135.3,286047002.7,N
1530006155.2,286047000.9,N
1530006175.0,286046998.1,N
1530006175.9,286046998.1,N
1530006195.5,286047000.5,N
1530006215.4,286047000.4,N
1530006235.2,286047002.6,N
1530006255.0,286047001.8,N
1530006256.0,286047001.8,N
1530006275.8,286047001.6,N
1530006295.6,286047002.0,N
1530006315.5,286047002.8,N
1530006335.6,286047000.3,N
1530006355.4,286046998.3,N
1530006375.3,286046998.7,N
1530006395.1,286046996.6,N
1530006415.2,286046998.7,N
1530006435.1,286046999.2,N
1530006436.0,286046999.2,N
1530006455.8,286046999.0,N
1530006475.6,286046996.6,N
1530006495.5,286046997.8,N
1530006515.3,286046998.9,N
1530006535.2,286046998.5,N
1530006555.9,286047000.9,N
1530006575.7,286047001.1,N
1530006595.6,286046998.3,N
1530006615.4,286047000.5,N
1530006635.2,286046999.8,N
1530006655.1,286047000.7,N
1530006656.0,286047000.7,N
1530006675.8,286047002.3,N
1530006695.7,286047000.0,N
1530006715.5,286047000.6,N
1530006735.3,286046998.5,N
1530006755.2,286047001.0,N
1530006775.0,286047000.8,N
1530006775.9,286047000.8,N
1530006795.8,286046999.9,N
1530006815.6,286047002.6,N
1530006835.4,286047001.6,N
1530006855.3,286047002.5,N
1530006875.1,286047001.9,N
1530006895.8,286047002.6,N
1530006915.7,286047002.0,N
1530006935.5,286047001.3,N
1530006955.4,286047003.9,N
1530006975.2,286047003.5,N
1530006995.0,286047001.3,N
1530006995.9,286047001.3,N
1530007015.8,286047002.7,N
1530007035.6,286047002.0,N
1530007055.5,286047004.4,Y
1530007075.3,286047001.9,P
1530007095.1,286047001.6,P
1530007115.9,286047001.5,P
1530007135.7,286047001.9,Y
1530007155.6,286046999.8,P
1530007175.4,286047002.8,P
1530007195.2,286047000.5,N
